Theta_e
337 337 337 340 345 349 350 351 352 351 351 352 352 352 351 350 347 346 348 349 345 345 345 343 343 343 346 349 346 347 352 352 351 355 354 352 353 355 355 354 354 354
336 336 336 341 345 346 346 349 351 352 352 351 351 353 351 349 347 345 345 345 346 347 346 344 345 343 344 349 348 347 349 349 348 353 355 353 354 355 356 354 354 354
337 338 336 340 344 344 346 349 351 351 352 352 352 353 352 351 351 348 346 345 346 350 350 348 347 346 344 345 344 345 348 347 345 348 350 351 353 355 356 355 354 354
336 339 340 344 347 347 348 350 351 350 351 353 353 352 353 353 354 353 350 345 344 347 349 347 347 349 349 345 342 345 347 347 346 346 346 349 352 353 353 354 354 354
339 340 342 346 348 348 349 350 351 351 351 352 352 352 353 351 351 354 353 350 346 345 348 347 346 347 348 344 342 346 350 351 351 350 347 347 350 352 353 354 354 353
346 343 341 344 346 348 349 349 350 351 352 352 351 352 353 351 350 352 354 354 352 350 352 352 352 351 352 350 347 347 350 353 355 354 349 346 348 352 354 354 354 353
351 348 345 345 346 347 348 349 349 350 351 352 352 352 353 352 351 351 352 352 353 353 353 354 355 353 353 355 353 349 348 349 351 350 346 346 348 349 351 354 354 350
353 352 350 349 348 348 348 347 348 349 350 351 352 352 352 352 352 352 352 351 352 353 353 354 354 352 352 355 355 352 350 350 352 350 345 346 347 345 346 351 352 349
353 353 352 351 350 349 347 347 346 348 349 350 350 351 351 351 351 351 352 352 351 352 352 352 352 353 353 355 355 354 353 353 355 355 354 352 351 350 351 352 353 352
353 353 352 352 351 349 347 346 346 347 348 349 349 349 349 350 350 351 352 352 351 350 350 349 350 352 354 355 355 355 355 354 353 353 354 354 353 355 355 355 356 355
353 353 352 352 352 350 348 347 347 346 347 348 348 347 347 348 350 351 352 352 351 351 351 350 350 351 353 354 356 356 356 357 356 355 353 353 353 353 352 353 354 355
351 352 353 354 353 352 350 347 347 347 347 348 348 347 346 347 349 350 352 352 352 352 353 354 353 353 354 353 354 355 356 356 356 356 356 356 355 354 353 354 354 355
349 351 353 354 355 354 352 350 348 347 347 348 348 348 347 346 347 349 351 353 353 352 351 351 352 353 353 351 352 355 356 356 356 355 355 355 356 356 356 356 355 356
352 354 354 354 355 354 353 353 351 349 348 348 348 349 348 347 346 347 348 351 354 354 352 350 348 350 351 350 351 354 355 354 354 354 354 354 355 356 356 356 356 355
351 354 354 353 353 353 353 353 353 352 351 350 349 348 347 347 346 345 347 349 352 355 355 353 351 352 351 348 349 353 354 354 354 355 355 354 355 356 355 355 355 355
351 352 352 352 352 353 352 352 353 354 353 352 351 350 349 349 348 348 349 350 351 354 355 354 353 354 351 348 349 352 353 354 354 353 353 353 355 355 354 354 354 354
352 353 353 352 351 349 349 351 353 353 353 351 352 352 351 350 350 351 351 352 352 354 354 353 354 355 353 351 352 352 353 353 352 351 350 351 351 352 353 354 354 354
350 352 351 349 348 346 347 350 352 352 352 350 352 353 352 351 352 353 353 354 354 353 353 353 353 353 353 352 352 352 352 352 352 351 351 350 350 353 354 354 354 354
349 349 348 348 347 345 345 347 349 351 351 351 353 355 354 353 355 354 353 354 354 354 354 354 352 351 351 351 351 352 352 352 352 352 351 351 353 355 356 356 354 353
348 348 347 346 346 347 346 346 345 347 349 351 353 354 354 354 354 352 351 352 354 354 353 352 351 350 349 348 349 350 351 351 351 351 350 351 353 354 354 355 354 352
348 348 347 346 347 348 348 347 345 346 349 351 352 352 353 353 351 350 351 352 352 352 351 351 350 349 349 348 348 350 350 351 351 350 350 350 351 350 350 351 352 352
349 349 349 349 349 350 350 348 348 348 350 351 351 350 351 351 349 348 349 349 349 349 349 349 348 349 349 348 348 349 349 350 349 349 349 349 349 349 349 349 349 350
349 349 350 350 350 351 351 350 349 349 349 349 349 348 348 348 347 348 347 347 347 348 348 348 347 347 347 348 348 348 348 349 350 350 350 350 349 350 350 350 350 350
346 347 348 348 348 348 348 347 346 346 346 346 347 347 347 346 346 347 347 347 347 347 347 348 348 347 347 348 348 348 348 349 350 350 350 350 350 350 350 350 350 350
345 345 346 347 347 347 347 346 345 346 345 345 346 346 345 344 344 345 345 345 345 346 346 346 346 347 347 348 348 348 348 348 348 348 349 348 348 348 348 348 348 349
342 342 343 343 343 343 343 343 343 343 343 342 342 342 342 342 342 343 344 343 343 344 344 344 344 345 346 346 346 346 346 346 346 346 346 346 346 346 346 345 344 344
Wind_Speed
15 15 15 15 14 13 12 11 9 9 8 8 7 7 8 8 8 8 8 9 9 8 8 8 7 7 7 6 7 7 7 7 6 6 7 7 6 6 6 6 6 7
16 16 16 16 16 16 15 13 10 9 9 9 8 8 8 8 8 9 9 9 9 8 9 8 8 8 8 7 8 8 8 9 8 7 8 8 7 7 7 7 7 7
17 17 17 17 16 16 15 13 12 11 10 10 10 9 9 8 8 9 10 10 9 9 9 9 9 9 9 9 10 9 9 10 9 9 10 10 8 8 8 8 7 8
18 18 18 17 16 15 14 14 13 13 11 11 11 10 10 10 9 10 10 11 11 11 11 11 10 10 10 11 11 10 10 11 10 10 11 10 9 9 9 9 9 9
19 19 18 17 17 16 16 15 15 14 12 12 12 11 11 12 11 10 10 11 12 11 11 11 11 11 12 12 11 11 10 10 10 11 11 10 10 9 9 9 10 10
20 20 19 19 18 18 17 16 16 15 14 13 13 12 12 12 12 11 11 11 11 11 11 11 11 11 11 12 12 12 11 10 10 12 12 11 11 10 9 10 10 11
19 20 20 19 19 19 19 18 17 16 15 14 14 14 13 13 12 12 12 12 11 11 11 11 12 13 12 11 12 13 13 12 12 13 13 11 11 11 11 11 12 12
19 19 19 19 19 19 19 19 18 17 17 16 15 15 15 14 14 13 13 13 12 12 12 12 13 14 13 12 12 13 13 12 12 13 13 12 13 13 12 12 13 13
19 18 18 18 18 19 19 19 19 18 18 17 17 16 15 15 14 14 14 14 14 14 14 14 14 14 13 12 13 14 13 12 12 12 13 13 13 13 12 12 12 13
18 18 18 18 18 18 19 19 19 18 18 18 17 16 16 15 14 14 14 15 14 14 14 14 14 14 13 12 13 14 14 14 14 14 14 14 13 13 12 12 13 13
17 17 18 18 17 18 18 19 19 18 18 18 18 18 16 15 15 15 15 15 14 14 14 14 14 14 14 13 13 13 13 14 14 14 14 14 14 14 14 14 14 14
18 18 18 17 17 17 17 18 18 18 18 18 18 18 17 16 16 15 15 15 15 14 14 14 14 13 14 14 13 13 14 13 13 13 14 13 14 14 14 14 14 14
18 19 18 17 17 17 16 16 17 18 18 18 17 17 17 17 17 16 15 15 15 16 16 16 15 15 15 16 15 14 13 13 13 13 13 13 13 13 14 14 14 14
17 17 17 17 18 18 18 17 16 16 17 17 17 17 17 17 16 16 16 15 15 16 16 17 17 16 17 17 16 15 14 13 14 14 14 14 14 14 14 14 15 15
18 16 18 18 18 18 19 18 17 16 15 16 16 16 16 16 16 16 16 16 15 14 15 17 17 17 18 18 18 17 15 14 14 15 15 15 15 16 15 16 17 16
20 18 19 19 17 17 18 17 17 16 15 15 15 15 15 15 15 15 15 15 15 14 16 17 17 18 20 20 18 17 16 15 16 16 16 15 16 17 17 17 17 17
19 17 17 16 16 17 17 16 16 16 16 16 15 13 14 15 14 14 14 14 15 15 15 17 18 20 21 19 18 18 18 18 18 17 17 18 17 17 16 16 16 16
20 18 18 17 18 18 17 17 15 14 15 17 14 12 13 14 13 13 13 13 14 15 14 17 20 20 19 19 19 19 20 19 17 18 19 19 16 15 15 15 15 16
20 21 21 20 19 17 17 17 16 14 13 13 11 10 12 13 13 14 14 13 13 14 15 19 21 18 17 19 20 20 21 20 19 20 20 17 15 14 15 15 17 19
17 18 19 19 18 16 16 17 18 17 14 12 11 10 11 13 15 16 14 12 13 13 14 19 21 19 19 21 20 21 21 21 21 21 18 15 14 16 17 17 19 22
13 15 17 18 18 17 17 17 17 17 15 15 15 13 12 13 15 15 13 12 13 12 12 15 17 16 18 19 19 20 21 21 21 22 20 17 17 18 18 19 20 21
12 13 17 20 18 17 17 17 17 18 17 15 14 14 14 12 11 11 13 14 14 11 11 14 14 13 16 17 17 18 19 19 20 20 20 20 19 19 20 20 20 19
9 10 14 16 15 14 14 13 13 15 16 15 11 11 14 13 11 11 12 14 14 11 12 16 15 13 15 17 17 18 18 17 16 16 16 18 20 20 21 21 21 20
6 7 9 11 11 10 9 8 8 9 11 10 8 8 10 11 10 10 10 11 12 10 12 16 15 13 15 17 17 18 18 17 17 15 15 15 16 16 18 20 19 19
4 7 9 9 10 11 10 8 7 7 6 5 5 6 6 5 6 8 8 9 9 8 10 13 11 10 12 14 14 14 15 16 16 16 15 15 14 15 17 19 19 18
3 4 5 4 6 8 9 7 5 5 5 4 4 4 3 2 1 4 6 6 6 8 10 11 9 8 9 10 12 12 13 13 13 14 14 14 15 16 16 17 17 17
Wind_Direction
216 218 218 218 220 220 220 220 222 225 223 221 225 226 224 222 221 219 220 229 236 236 240 244 248 249 246 250 252 241 241 245 239 249 262 259 256 257 259 260 257 257
217 218 219 219 222 223 221 219 221 228 230 226 223 228 230 227 226 225 225 230 233 236 244 248 249 252 246 242 250 249 248 250 240 239 253 256 253 257 259 260 261 262
218 221 222 221 223 225 224 224 227 228 228 230 231 231 232 232 232 233 231 230 229 229 239 245 245 249 249 244 248 248 247 252 247 238 246 254 253 253 257 259 260 261
219 221 223 222 222 225 224 225 229 230 227 228 232 232 231 229 228 233 235 233 231 228 233 241 241 239 242 245 248 247 247 254 256 252 254 259 257 253 254 255 253 254
222 222 222 221 220 222 224 224 225 228 228 228 230 231 234 235 230 231 237 238 237 235 235 242 244 241 242 245 245 243 244 249 256 262 261 257 256 257 256 254 253 252
225 226 224 223 222 221 222 224 224 225 226 228 229 228 233 240 238 232 233 236 238 236 235 238 241 238 238 244 246 241 238 236 239 252 259 256 254 252 249 250 253 253
225 229 230 226 224 224 223 223 224 226 226 226 228 228 227 232 235 234 233 235 235 235 234 234 236 237 233 236 245 247 244 239 238 247 254 255 253 250 246 247 252 256
226 228 231 230 226 226 225 225 225 226 227 226 226 228 227 227 230 232 234 235 235 236 237 235 239 244 240 235 242 248 249 245 244 251 255 252 252 254 253 250 253 259
228 227 229 230 227 226 226 225 226 227 228 228 228 230 231 231 231 230 231 234 234 234 237 239 242 245 243 238 240 245 247 244 240 244 249 249 249 252 253 252 252 256
227 226 227 229 228 227 226 225 225 226 228 229 229 230 232 234 234 230 230 234 235 235 239 242 243 242 241 239 242 246 247 248 245 241 243 247 247 246 246 246 247 249
229 226 226 227 228 229 228 227 226 225 228 229 228 229 230 232 234 232 231 233 234 234 238 242 243 241 239 238 240 246 248 249 250 249 249 249 250 250 249 248 247 248
238 233 229 227 229 232 231 231 230 227 228 229 229 230 230 230 233 233 233 234 234 233 232 237 239 237 239 239 238 242 247 249 251 254 255 254 254 255 255 253 252 252
249 245 240 234 231 233 233 232 232 232 231 231 233 233 232 233 233 234 235 235 237 239 236 236 237 235 238 240 238 238 244 249 251 253 255 256 256 255 254 252 250 252
253 248 247 242 236 237 239 234 231 232 232 232 233 233 234 235 234 237 239 238 239 242 242 243 244 241 240 240 239 239 240 243 250 253 253 253 255 255 254 252 249 249
252 247 250 252 249 247 245 239 232 231 232 232 233 233 234 235 236 238 241 241 240 239 241 246 246 242 243 242 239 241 243 244 247 249 251 255 258 260 259 256 254 253
254 249 249 254 257 256 254 247 237 231 231 231 231 232 232 232 234 237 238 240 242 239 242 249 249 244 246 245 241 244 248 249 248 248 251 255 260 264 265 261 259 258
256 249 245 249 256 263 267 261 245 234 229 228 227 228 230 231 233 237 240 241 243 242 245 250 247 244 245 244 241 243 247 251 256 258 258 259 262 268 270 266 262 260
252 248 251 255 256 260 267 264 251 237 229 229 229 229 233 237 239 242 246 248 249 249 249 249 247 244 246 244 239 240 244 250 258 262 261 263 268 271 270 267 264 264
249 246 251 257 259 261 262 260 257 249 238 233 232 232 233 237 241 243 244 248 252 253 251 252 252 250 251 250 246 245 248 252 259 264 264 264 267 266 266 268 268 268
253 251 252 257 261 258 251 249 252 253 249 242 238 236 234 235 239 241 241 245 252 252 253 257 257 256 256 256 255 254 254 257 264 269 268 264 262 263 263 265 266 269
257 257 253 252 253 249 242 240 239 238 239 240 240 239 238 241 244 240 236 242 245 240 243 254 259 260 260 260 259 257 257 262 266 269 271 269 268 269 268 267 268 271
259 259 254 250 248 243 238 235 230 226 226 232 241 245 243 247 253 246 240 247 252 251 254 258 256 256 258 258 257 257 257 263 268 271 272 275 277 278 278 278 277 277
261 255 251 246 238 229 226 226 225 223 224 230 242 246 240 240 249 253 249 252 258 265 268 264 259 257 261 262 261 262 263 266 271 272 273 277 280 281 282 282 281 280
256 237 228 217 203 196 197 199 199 202 210 221 233 240 241 242 247 255 260 262 264 267 267 267 266 260 260 264 266 266 267 268 269 271 272 274 277 279 279 279 280 280
208 207 202 194 185 175 167 167 172 175 185 209 229 239 250 262 260 258 261 268 278 283 278 278 280 266 261 268 273 274 274 273 274 276 276 275 277 280 280 282 284 285
131 160 166 183 191 171 156 150 150 153 162 178 183 177 163 138 188 235 244 258 282 288 283 288 295 290 282 285 289 290 288 286 286 286 285 285 288 291 292 294 296 296